Weather History for Pellston, MI

Change the Weather History Date:

Sunday, January 6, 2013

  Actual Average Record
Temperature  
Mean Temperature 30 °F -  
Max Temperature 35 °F 25 °F 46 °F (2008)
Min Temperature 25 °F 13 °F -19 °F (1973)
Degree Days  
Heating Degree Days 35    
Moisture  
Dew Point 24 °F    
Average Humidity 78    
Maximum Humidity 86    
Minimum Humidity 69    
Precipitation  
Precipitation 0.00 in - - ()
Sea Level Pressure  
Sea Level Pressure 29.95 in    
Wind  
Wind Speed 6 mph (NNW)    
Max Wind Speed 13 mph    
Max Gust Speed 18 mph    
Visibility 8 miles    
Events Snow    
Averages and records for this station are not official NWS values.
T = Trace of Precipitation, MM = Missing Value Source: NWS Daily Summary

Daily Weather History Graph

Daily Weather History Graph

Search for Another Location

Airport:

Trip Planner

Search our weather history database for the weather conditions in past years. The results will help you decide how hot, cold, wet, or windy it might be!

Date:

Astronomy

Jan. 06, 2013 Rise Set
Actual Time 8:19 AM EST 5:11 PM EST
Civil Twilight 7:45 AM EST 5:45 PM EST
Nautical Twilight 7:08 AM EST 6:22 PM EST
Astronomical Twilight 6:32 AM EST 6:58 PM EST
Moon 2:25 AM EST (1/6) 12:44 PM EST (1/6)
Length of Visible Light 10h 00m
Length of Day
8h 52m
Waning Crescent, 33% of the Moon is Illuminated
Jan 6
Waning Crescent
Jan 11
New
Jan 18
First Quarter
Jan 26
Full
Feb 3
Last Quarter

Hourly Weather History & Observations

Time (EST) Temp. Windchill Dew Point Humidity Pressure Visibility Wind Dir Wind Speed Gust Speed Precip Events Conditions
12:54 AM 35.1 °F 31.0 °F 27.0 °F 72% 29.83 in 9.0 mi Variable 4.6 mph - N/A   Overcast
1:54 AM 35.1 °F 26.9 °F 26.1 °F 70% 29.81 in 9.0 mi WSW 11.5 mph 18.4 mph N/A   Overcast
2:54 AM 34.0 °F 29.8 °F 25.0 °F 70% 29.81 in 10.0 mi SW 4.6 mph - N/A   Overcast
3:03 AM 33.8 °F 26.4 °F 24.8 °F 70% 29.79 in 10.0 mi WSW 9.2 mph - N/A   Overcast
3:20 AM 33.8 °F 29.6 °F 24.8 °F 70% 29.78 in 10.0 mi WSW 4.6 mph - N/A   Overcast
3:54 AM 34.0 °F 31.0 °F 25.0 °F 70% 29.81 in 10.0 mi West 3.5 mph - N/A   Overcast
4:27 AM 33.8 °F - 26.6 °F 75% 29.77 in 9.0 mi Calm Calm - N/A   Overcast
4:36 AM 33.8 °F - 26.6 °F 75% 29.78 in 9.0 mi Calm Calm - N/A   Overcast
4:54 AM 33.1 °F - 26.1 °F 75% 29.80 in 9.0 mi Calm Calm - N/A   Overcast
5:54 AM 32.0 °F - 27.0 °F 82% 29.80 in 6.0 mi Calm Calm - N/A   Haze
6:54 AM 32.0 °F - 27.0 °F 82% 29.82 in 6.0 mi Calm Calm - N/A   Haze
7:54 AM 30.9 °F - 27.0 °F 85% 29.84 in 5.0 mi Calm Calm - N/A   Overcast
8:54 AM 30.9 °F 27.5 °F 27.0 °F 85% 29.86 in 4.0 mi NNW 3.5 mph - N/A   Overcast
9:38 AM 30.2 °F 24.3 °F 26.6 °F 86% 29.86 in 3.0 mi North 5.8 mph - 0.00 in Snow Light Snow
9:46 AM 30.2 °F 23.4 °F 26.6 °F 86% 29.86 in 2.0 mi North 6.9 mph - 0.00 in Snow Light Snow
9:54 AM 30.9 °F 24.3 °F 27.0 °F 85% 29.89 in 1.8 mi North 6.9 mph - 0.00 in Snow Light Snow
10:00 AM 30.2 °F 21.3 °F 26.6 °F 86% 29.87 in 3.0 mi North 10.4 mph - 0.00 in Snow Light Snow
10:19 AM 30.2 °F 21.3 °F 26.6 °F 86% 29.88 in 2.5 mi North 10.4 mph - 0.00 in Snow Light Snow
10:24 AM 30.2 °F 20.2 °F 26.6 °F 86% 29.88 in 3.0 mi North 12.7 mph - 0.00 in Snow Light Snow
10:54 AM 28.9 °F 20.4 °F 25.0 °F 85% 29.94 in 4.0 mi North 9.2 mph - 0.00 in Snow Light Snow
11:18 AM 30.2 °F 22.6 °F 24.8 °F 80% 29.90 in 5.0 mi NE 8.1 mph - 0.00 in   Haze
11:45 AM 30.2 °F 22.6 °F 24.8 °F 80% 29.91 in 5.0 mi ENE 8.1 mph - 0.00 in Snow Light Snow
11:54 AM 28.9 °F 21.1 °F 25.0 °F 85% 29.95 in 6.0 mi ENE 8.1 mph - 0.00 in   Overcast
12:08 PM 28.4 °F 19.1 °F 24.8 °F 86% 29.92 in 8.0 mi ENE 10.4 mph - N/A   Overcast
12:27 PM 28.4 °F 19.1 °F 24.8 °F 86% 29.93 in 9.0 mi NE 10.4 mph - N/A   Overcast
1:54 PM 28.0 °F 18.6 °F 23.0 °F 81% 29.99 in 10.0 mi NNE 10.4 mph - N/A   Overcast
2:54 PM 28.0 °F 19.3 °F 21.9 °F 78% 30.03 in 10.0 mi North 9.2 mph - N/A   Overcast
3:54 PM 28.0 °F 21.7 °F 21.9 °F 78% 30.07 in 10.0 mi North 5.8 mph - N/A   Overcast
4:10 PM 28.4 °F 22.2 °F 21.2 °F 74% 30.05 in 10.0 mi North 5.8 mph - N/A   Overcast
4:54 PM 28.9 °F 21.9 °F 19.9 °F 69% 30.11 in 10.0 mi NNW 6.9 mph - N/A   Overcast
5:54 PM 28.9 °F 21.9 °F 21.0 °F 72% 30.14 in 10.0 mi NNW 6.9 mph - N/A   Overcast
6:54 PM 28.0 °F 20.0 °F 21.0 °F 75% 30.17 in 10.0 mi NNW 8.1 mph - N/A   Overcast
7:54 PM 27.0 °F 18.0 °F 19.9 °F 75% 30.20 in 10.0 mi NW 9.2 mph - N/A   Overcast
8:54 PM 26.1 °F 19.4 °F 19.0 °F 75% 30.21 in 10.0 mi NW 5.8 mph - N/A   Overcast
9:54 PM 26.1 °F 19.4 °F 18.0 °F 71% 30.23 in 10.0 mi NW 5.8 mph - N/A   Overcast
10:54 PM 25.0 °F 18.1 °F 17.1 °F 72% 30.24 in 10.0 mi WNW 5.8 mph - N/A   Overcast
11:54 PM 25.0 °F 20.7 °F 17.1 °F 72% 30.27 in 10.0 mi WSW 3.5 mph - N/A   Overcast